owner,sensor,date,latitude,longitude,vertical_datum,direction_of_sea_water_velocity,sea_water_speed,upward_sea_water_velocity,qcFlag 
TABS,ioos:station:wmo:42051:1,2006-09-01T00:30:00Z,29.6350,-93.6417,2.0,338.2287479,7.117703281,-99999.0,'11133222,11111222,99999999' 
TABS,ioos:station:wmo:42051:1,2006-09-01T01:00:00Z,29.6350,-93.6417,2.0,2.360795454,7.526386915,-99999.0,'11133222,11111222,99999999' 
TABS,ioos:station:wmo:42051:1,2006-09-01T01:30:00Z,29.6350,-93.6417,2.0,288.5958182,4.515750215,-99999.0,'11133222,11111222,99999999' 
TABS,ioos:station:wmo:42051:1,2006-09-01T02:30:00Z,29.6350,-93.6417,2.0,284.948505,4.419558802,-99999.0,'11133222,11111222,99999999' 
TABS,ioos:station:wmo:42051:1,2006-09-01T03:00:00Z,29.6350,-93.6417,2.0,280.5783666,5.066093169,-99999.0,'11133222,11111222,99999999' 
TABS,ioos:station:wmo:42051:1,2006-09-01T03:30:00Z,29.6350,-93.6417,2.0,259.1228591,4.928539337,-99999.0,'11133222,11111222,99999999' 
TABS,ioos:station:wmo:42051:1,2006-09-01T04:00:00Z,29.6350,-93.6417,2.0,304.0259587,1.894333656,-99999.0,'11133222,11111222,99999999' 
TABS,ioos:station:wmo:42051:1,2006-09-01T05:00:00Z,29.6350,-93.6417,2.0,42.92508372,1.952895286,-99999.0,'11133222,11111222,99999999' 
TABS,ioos:station:wmo:42051:1,2006-09-01T05:30:00Z,29.6350,-93.6417,2.0,186.8141265,1.601311962,-99999.0,'11133222,11111222,99999999' 
TABS,ioos:station:wmo:42051:1,2006-09-01T06:00:00Z,29.6350,-93.6417,2.0,70.20116994,0.53141321,-99999.0,'11133222,11111222,99999999' 
TABS,ioos:station:wmo:42051:1,2006-09-01T06:30:00Z,29.6350,-93.6417,2.0,115.0743607,2.406823633,-99999.0,'11133222,11111222,99999999' 
TABS,ioos:station:wmo:42051:1,2006-09-01T07:00:00Z,29.6350,-93.6417,2.0,134.1000372,2.701481075,-99999.0,'11133222,11111222,99999999' 
TABS,ioos:station:wmo:42051:1,2006-09-01T07:30:00Z,29.6350,-93.6417,2.0,106.9274735,3.365828278,-99999.0,'11133222,11111222,99999999' 
TABS,ioos:station:wmo:42051:1,2006-09-01T08:00:00Z,29.6350,-93.6417,2.0,114.9738525,3.221179908,-99999.0,'11133222,11111222,99999999' 
TABS,ioos:station:wmo:42051:1,2006-09-01T08:30:00Z,29.6350,-93.6417,2.0,148.6711699,1.884807682,-99999.0,'11133222,11111222,99999999' 
TABS,ioos:station:wmo:42051:1,2006-09-01T09:30:00Z,29.6350,-93.6417,2.0,116.0404251,4.396293894,-99999.0,'11133222,11111222,99999999' 
TABS,ioos:station:wmo:42051:1,2006-09-01T10:00:00Z,29.6350,-93.6417,2.0,53.66620288,1.924084198,-99999.0,'11133222,11111222,99999999' 
TABS,ioos:station:wmo:42051:1,2006-09-01T10:30:00Z,29.6350,-93.6417,2.0,129.2453429,2.750363612,-99999.0,'11133222,11111222,99999999' 
TABS,ioos:station:wmo:42051:1,2006-09-01T11:00:00Z,29.6350,-93.6417,2.0,93.57632601,4.168117081,-99999.0,'11133222,11111222,99999999' 
TABS,ioos:station:wmo:42051:1,2006-09-01T11:30:00Z,29.6350,-93.6417,2.0,59.97779073,2.818102198,-99999.0,'11133222,11111222,99999999' 
TABS,ioos:station:wmo:42051:1,2006-09-01T12:00:00Z,29.6350,-93.6417,2.0,93.42386324,4.688368586,-99999.0,'11133222,11111222,99999999' 
TABS,ioos:station:wmo:42051:1,2006-09-01T12:30:00Z,29.6350,-93.6417,2.0,87.16334653,2.222723555,-99999.0,'11133222,11111222,99999999' 
TABS,ioos:station:wmo:42051:1,2006-09-01T13:00:00Z,29.6350,-93.6417,2.0,93.90048462,1.323064624,-99999.0,'11133222,11111222,99999999' 
TABS,ioos:station:wmo:42051:1,2006-09-01T13:30:00Z,29.6350,-93.6417,2.0,140.3782877,2.791218372,-99999.0,'11133222,11111222,99999999' 
TABS,ioos:station:wmo:42051:1,2006-09-01T14:00:00Z,29.6350,-93.6417,2.0,77.8113953,2.557655176,-99999.0,'11133222,11111222,99999999' 
TABS,ioos:station:wmo:42051:1,2006-09-01T14:30:00Z,29.6350,-93.6417,2.0,176.6048739,1.182074448,-99999.0,'11133222,11111222,99999999' 
TABS,ioos:station:wmo:42051:1,2006-09-01T15:00:00Z,29.6350,-93.6417,2.0,223.8908748,3.288662342,-99999.0,'11133222,11111222,99999999' 
TABS,ioos:station:wmo:42051:1,2006-09-01T15:30:00Z,29.6350,-93.6417,2.0,332.5177539,2.513662666,-99999.0,'11133222,11111222,99999999' 
TABS,ioos:station:wmo:42051:1,2006-09-01T16:00:00Z,29.6350,-93.6417,2.0,7.088669561,3.889730068,-99999.0,'11133222,11111222,99999999' 
TABS,ioos:station:wmo:42051:1,2006-09-01T17:00:00Z,29.6350,-93.6417,2.0,151.5569274,0.272946881,-99999.0,'11133222,11111222,99999999' 
TABS,ioos:station:wmo:42051:1,2006-09-01T17:30:00Z,29.6350,-93.6417,2.0,198.3364181,1.843610588,-99999.0,'11133222,11111222,99999999' 
TABS,ioos:station:wmo:42051:1,2006-09-01T18:00:00Z,29.6350,-93.6417,2.0,109.8811406,2.881752939,-99999.0,'11133222,11111222,99999999' 
TABS,ioos:station:wmo:42051:1,2006-09-01T18:30:00Z,29.6350,-93.6417,2.0,130.9444499,6.698932751,-99999.0,'11133222,11111222,99999999' 
TABS,ioos:station:wmo:42051:1,2006-09-01T19:00:00Z,29.6350,-93.6417,2.0,115.0777101,11.3720007,-99999.0,'11111222,11111222,99999999' 
TABS,ioos:station:wmo:42051:1,2006-09-01T19:30:00Z,29.6350,-93.6417,2.0,112.1403064,16.63673646,-99999.0,'11111222,11111222,99999999' 
TABS,ioos:station:wmo:42051:1,2006-09-01T20:00:00Z,29.6350,-93.6417,2.0,151.7249904,5.995331517,-99999.0,'11133222,11111222,99999999' 
TABS,ioos:station:wmo:42051:1,2006-09-01T20:30:00Z,29.6350,-93.6417,2.0,199.4295146,3.096336545,-99999.0,'11133222,11111222,99999999' 
TABS,ioos:station:wmo:42051:1,2006-09-01T21:00:00Z,29.6350,-93.6417,2.0,168.1899342,6.742729418,-99999.0,'11133222,11111222,99999999' 
TABS,ioos:station:wmo:42051:1,2006-09-01T21:30:00Z,29.6350,-93.6417,2.0,172.3436483,6.154867992,-99999.0,'11133222,11111222,99999999' 
TABS,ioos:station:wmo:42051:1,2006-09-01T22:00:00Z,29.6350,-93.6417,2.0,247.8901824,1.726991604,-99999.0,'11133222,11111222,99999999' 
TABS,ioos:station:wmo:42051:1,2006-09-01T22:30:00Z,29.6350,-93.6417,2.0,307.5949154,2.688215021,-99999.0,'11133222,11111222,99999999' 
TABS,ioos:station:wmo:42051:1,2006-09-01T23:00:00Z,29.6350,-93.6417,2.0,186.1078136,2.725472436,-99999.0,'11133222,11111222,99999999' 
TABS,ioos:station:wmo:42051:1,2006-09-01T23:30:00Z,29.6350,-93.6417,2.0,195.9451482,4.295264835,-99999.0,'11133222,11111222,99999999' 
TABS,ioos:station:wmo:42051:1,2006-09-02T00:00:00Z,29.6350,-93.6417,2.0,328.3287488,5.275699006,-99999.0,'11133222,11111222,99999999' 
TABS,ioos:station:wmo:42051:1,2006-09-02T00:30:00Z,29.6350,-93.6417,2.0,353.2133308,6.515658063,-99999.0,'11133222,11111222,99999999' 
TABS,ioos:station:wmo:42051:1,2006-09-02T01:00:00Z,29.6350,-93.6417,2.0,345.8585608,6.58970409,-99999.0,'11133222,11111222,99999999' 
TABS,ioos:station:wmo:42051:1,2006-09-02T01:30:00Z,29.6350,-93.6417,2.0,337.7146749,6.59241989,-99999.0,'11133222,11111222,99999999' 
TABS,ioos:station:wmo:42051:1,2006-09-02T02:00:00Z,29.6350,-93.6417,2.0,351.2768502,7.648476973,-99999.0,'11133222,11111222,99999999' 
TABS,ioos:station:wmo:42051:1,2006-09-02T02:30:00Z,29.6350,-93.6417,2.0,358.3846078,7.803101947,-99999.0,'11133222,11111222,99999999' 
TABS,ioos:station:wmo:42051:1,2006-09-02T03:00:00Z,29.6350,-93.6417,2.0,345.0646378,8.807553576,-99999.0,'11133222,11111222,99999999' 
TABS,ioos:station:wmo:42051:1,2006-09-02T03:30:00Z,29.6350,-93.6417,2.0,30.17571317,5.610249549,-99999.0,'11133222,11111222,99999999' 
TABS,ioos:station:wmo:42051:1,2006-09-02T04:00:00Z,29.6350,-93.6417,2.0,37.61948613,5.50447091,-99999.0,'11133222,11111222,99999999' 
TABS,ioos:station:wmo:42051:1,2006-09-02T04:30:00Z,29.6350,-93.6417,2.0,8.897182858,4.33212419,-99999.0,'11133222,11111222,99999999' 
TABS,ioos:station:wmo:42051:1,2006-09-02T05:00:00Z,29.6350,-93.6417,2.0,6.461960254,3.643144246,-99999.0,'11133222,11111222,99999999' 
TABS,ioos:station:wmo:42051:1,2006-09-02T05:30:00Z,29.6350,-93.6417,2.0,300.9233832,2.412985702,-99999.0,'11133222,11111222,99999999' 
TABS,ioos:station:wmo:42051:1,2006-09-02T06:00:00Z,29.6350,-93.6417,2.0,267.397023,0.660681466,-99999.0,'11133222,11111222,99999999' 
TABS,ioos:station:wmo:42051:1,2006-09-02T06:30:00Z,29.6350,-93.6417,2.0,14.20694335,1.629846619,-99999.0,'11133222,11111222,99999999' 
TABS,ioos:station:wmo:42051:1,2006-09-02T07:00:00Z,29.6350,-93.6417,2.0,162.143608,1.565407295,-99999.0,'11133222,11111222,99999999' 
TABS,ioos:station:wmo:42051:1,2006-09-02T08:00:00Z,29.6350,-93.6417,2.0,182.0950372,0.820548597,-99999.0,'11133222,11111222,99999999' 
TABS,ioos:station:wmo:42051:1,2006-09-02T08:30:00Z,29.6350,-93.6417,2.0,157.0228988,1.357718675,-99999.0,'11133222,11111222,99999999' 
TABS,ioos:station:wmo:42051:1,2006-09-02T09:00:00Z,29.6350,-93.6417,2.0,92.4895471,0.920869155,-99999.0,'11133222,11111222,99999999' 
TABS,ioos:station:wmo:42051:1,2006-09-02T09:30:00Z,29.6350,-93.6417,2.0,89.5609615,2.610076627,-99999.0,'11133222,11111222,99999999' 
TABS,ioos:station:wmo:42051:1,2006-09-02T10:00:00Z,29.6350,-93.6417,2.0,56.70850623,7.177994149,-99999.0,'11133222,11111222,99999999' 
TABS,ioos:station:wmo:42051:1,2006-09-02T11:00:00Z,29.6350,-93.6417,2.0,138.2308971,1.756416807,-99999.0,'11133222,11111222,99999999' 
TABS,ioos:station:wmo:42051:1,2006-09-02T11:30:00Z,29.6350,-93.6417,2.0,176.7875873,1.963084308,-99999.0,'11133222,11111222,99999999' 
TABS,ioos:station:wmo:42051:1,2006-09-02T12:00:00Z,29.6350,-93.6417,2.0,111.9744566,2.458617498,-99999.0,'11133222,11111222,99999999' 
TABS,ioos:station:wmo:42051:1,2006-09-02T12:30:00Z,29.6350,-93.6417,2.0,184.2725603,1.744849564,-99999.0,'11133222,11111222,99999999' 
TABS,ioos:station:wmo:42051:1,2006-09-02T13:00:00Z,29.6350,-93.6417,2.0,257.3247007,2.552195134,-99999.0,'11133222,11111222,99999999' 
TABS,ioos:station:wmo:42051:1,2006-09-02T13:30:00Z,29.6350,-93.6417,2.0,178.1814908,1.890952141,-99999.0,'11133222,11111222,99999999' 
TABS,ioos:station:wmo:42051:1,2006-09-02T14:00:00Z,29.6350,-93.6417,2.0,245.4854146,3.374151745,-99999.0,'11133222,11111222,99999999' 
TABS,ioos:station:wmo:42051:1,2006-09-02T14:30:00Z,29.6350,-93.6417,2.0,239.8440529,4.49885541,-99999.0,'11133222,11111222,99999999' 
TABS,ioos:station:wmo:42051:1,2006-09-02T15:00:00Z,29.6350,-93.6417,2.0,229.1489984,4.984024478,-99999.0,'11133222,11111222,99999999' 
TABS,ioos:station:wmo:42051:1,2006-09-02T15:30:00Z,29.6350,-93.6417,2.0,251.4627239,7.108811434,-99999.0,'11133222,11111222,99999999' 
TABS,ioos:station:wmo:42051:1,2006-09-02T16:00:00Z,29.6350,-93.6417,2.0,233.1297677,6.45,-99999.0,'11133222,11111222,99999999' 
TABS,ioos:station:wmo:42051:1,2006-09-02T16:30:00Z,29.6350,-93.6417,2.0,230.1497546,3.308473968,-99999.0,'11133222,11111222,99999999' 
TABS,ioos:station:wmo:42051:1,2006-09-02T17:00:00Z,29.6350,-93.6417,2.0,223.3016941,7.159064185,-99999.0,'11133222,11111222,99999999' 
TABS,ioos:station:wmo:42051:1,2006-09-02T17:30:00Z,29.6350,-93.6417,2.0,239.5977162,8.220322378,-99999.0,'11133222,11111222,99999999' 
TABS,ioos:station:wmo:42051:1,2006-09-02T18:00:00Z,29.6350,-93.6417,2.0,236.9952198,7.416872656,-99999.0,'11133222,11111222,99999999' 
TABS,ioos:station:wmo:42051:1,2006-09-02T18:30:00Z,29.6350,-93.6417,2.0,247.1630068,9.353143856,-99999.0,'11133222,11111222,99999999' 
TABS,ioos:station:wmo:42051:1,2006-09-02T19:00:00Z,29.6350,-93.6417,2.0,222.1997349,6.803418258,-99999.0,'11133222,11111222,99999999' 
TABS,ioos:station:wmo:42051:1,2006-09-02T19:30:00Z,29.6350,-93.6417,2.0,173.8675814,6.084817171,-99999.0,'11133222,11111222,99999999' 
TABS,ioos:station:wmo:42051:1,2006-09-02T20:00:00Z,29.6350,-93.6417,2.0,226.1688209,3.812099159,-99999.0,'11133222,11111222,99999999' 
TABS,ioos:station:wmo:42051:1,2006-09-02T20:30:00Z,29.6350,-93.6417,2.0,271.6606994,4.141738765,-99999.0,'11133222,11111222,99999999' 
TABS,ioos:station:wmo:42051:1,2006-09-02T21:30:00Z,29.6350,-93.6417,2.0,309.5669472,2.763059898,-99999.0,'11133222,11111222,99999999' 
TABS,ioos:station:wmo:42051:1,2006-09-02T22:00:00Z,29.6350,-93.6417,2.0,284.7209713,5.076632742,-99999.0,'11133222,11111222,99999999' 
TABS,ioos:station:wmo:42051:1,2006-09-02T22:30:00Z,29.6350,-93.6417,2.0,286.7918005,5.953855893,-99999.0,'11133222,11111222,99999999' 
TABS,ioos:station:wmo:42051:1,2006-09-02T23:00:00Z,29.6350,-93.6417,2.0,307.9800386,8.157530264,-99999.0,'11133222,11111222,99999999' 
TABS,ioos:station:wmo:42051:1,2006-09-02T23:30:00Z,29.6350,-93.6417,2.0,330.1559765,10.00713745,-99999.0,'11111222,11111222,99999999' 
TABS,ioos:station:wmo:42051:1,2006-09-03T00:00:00Z,29.6350,-93.6417,2.0,349.7150655,10.41739411,-99999.0,'11111222,11111222,99999999' 
TABS,ioos:station:wmo:42051:1,2006-09-03T00:30:00Z,29.6350,-93.6417,2.0,340.2978168,8.720533241,-99999.0,'11133222,11111222,99999999' 
TABS,ioos:station:wmo:42051:1,2006-09-03T01:00:00Z,29.6350,-93.6417,2.0,336.8016742,7.311142182,-99999.0,'11133222,11111222,99999999' 
TABS,ioos:station:wmo:42051:1,2006-09-03T01:30:00Z,29.6350,-93.6417,2.0,351.0043171,7.674398999,-99999.0,'11133222,11111222,99999999' 
TABS,ioos:station:wmo:42051:1,2006-09-03T02:00:00Z,29.6350,-93.6417,2.0,348.6034741,9.058614684,-99999.0,'11133222,11111222,99999999' 
TABS,ioos:station:wmo:42051:1,2006-09-03T02:30:00Z,29.6350,-93.6417,2.0,356.1653362,7.326404302,-99999.0,'11133222,11111222,99999999' 
TABS,ioos:station:wmo:42051:1,2006-09-03T03:00:00Z,29.6350,-93.6417,2.0,2.088189409,5.763826854,-99999.0,'11133222,11111222,99999999' 
TABS,ioos:station:wmo:42051:1,2006-09-03T03:30:00Z,29.6350,-93.6417,2.0,320.7577746,4.299686035,-99999.0,'11133222,11111222,99999999' 
TABS,ioos:station:wmo:42051:1,2006-09-03T04:00:00Z,29.6350,-93.6417,2.0,30.22916597,6.018380181,-99999.0,'11133222,11111222,99999999' 
TABS,ioos:station:wmo:42051:1,2006-09-03T04:30:00Z,29.6350,-93.6417,2.0,40.18858198,4.215068208,-99999.0,'11133222,11111222,99999999' 
TABS,ioos:station:wmo:42051:1,2006-09-03T05:00:00Z,29.6350,-93.6417,2.0,59.69739014,3.567408023,-99999.0,'11133222,11111222,99999999' 
TABS,ioos:station:wmo:42051:1,2006-09-03T05:30:00Z,29.6350,-93.6417,2.0,303.5762751,2.78460051,-99999.0,'11133222,11111222,99999999' 
TABS,ioos:station:wmo:42051:1,2006-09-03T06:00:00Z,29.6350,-93.6417,2.0,173.4178603,1.308625233,-99999.0,'11133222,11111222,99999999' 
TABS,ioos:station:wmo:42051:1,2006-09-03T06:30:00Z,29.6350,-93.6417,2.0,233.7171209,2.146112765,-99999.0,'11133222,11111222,99999999' 
TABS,ioos:station:wmo:42051:1,2006-09-03T07:00:00Z,29.6350,-93.6417,2.0,233.2206409,2.522003172,-99999.0,'11133222,11111222,99999999' 
TABS,ioos:station:wmo:42051:1,2006-09-03T07:30:00Z,29.6350,-93.6417,2.0,202.7903271,2.581549922,-99999.0,'11133222,11111222,99999999' 
TABS,ioos:station:wmo:42051:1,2006-09-03T08:00:00Z,29.6350,-93.6417,2.0,211.7408431,2.528121833,-99999.0,'11133222,11111222,99999999' 
TABS,ioos:station:wmo:42051:1,2006-09-03T08:30:00Z,29.6350,-93.6417,2.0,201.4765303,2.622060259,-99999.0,'11133222,11111222,99999999' 
TABS,ioos:station:wmo:42051:1,2006-09-03T09:00:00Z,29.6350,-93.6417,2.0,226.1994177,2.70174018,-99999.0,'11133222,11111222,99999999' 
TABS,ioos:station:wmo:42051:1,2006-09-03T09:30:00Z,29.6350,-93.6417,2.0,226.0015728,4.448381728,-99999.0,'11133222,11111222,99999999' 
TABS,ioos:station:wmo:42051:1,2006-09-03T10:00:00Z,29.6350,-93.6417,2.0,262.7287274,2.923508167,-99999.0,'11133222,11111222,99999999' 
TABS,ioos:station:wmo:42051:1,2006-09-03T10:30:00Z,29.6350,-93.6417,2.0,224.283526,3.394377704,-99999.0,'11133222,11111222,99999999' 
TABS,ioos:station:wmo:42051:1,2006-09-03T11:00:00Z,29.6350,-93.6417,2.0,239.8499879,3.862538026,-99999.0,'11133222,11111222,99999999' 
TABS,ioos:station:wmo:42051:1,2006-09-03T11:30:00Z,29.6350,-93.6417,2.0,224.1060639,4.08050242,-99999.0,'11133222,11111222,99999999' 
TABS,ioos:station:wmo:42051:1,2006-09-03T12:00:00Z,29.6350,-93.6417,2.0,190.5814003,1.85148589,-99999.0,'11133222,11111222,99999999' 
TABS,ioos:station:wmo:42051:1,2006-09-03T13:00:00Z,29.6350,-93.6417,2.0,233.861528,2.662217121,-99999.0,'11133222,11111222,99999999' 
TABS,ioos:station:wmo:42051:1,2006-09-03T13:30:00Z,29.6350,-93.6417,2.0,3.455375747,2.654825795,-99999.0,'11133222,11111222,99999999' 
TABS,ioos:station:wmo:42051:1,2006-09-03T14:00:00Z,29.6350,-93.6417,2.0,243.2356476,3.863948757,-99999.0,'11133222,11111222,99999999' 
TABS,ioos:station:wmo:42051:1,2006-09-03T14:30:00Z,29.6350,-93.6417,2.0,10.0912441,1.198540779,-99999.0,'11133222,11111222,99999999' 
TABS,ioos:station:wmo:42051:1,2006-09-03T15:00:00Z,29.6350,-93.6417,2.0,210.9634737,2.857166428,-99999.0,'11133222,11111222,99999999' 
TABS,ioos:station:wmo:42051:1,2006-09-03T15:30:00Z,29.6350,-93.6417,2.0,227.188995,3.516887829,-99999.0,'11133222,11111222,99999999' 
TABS,ioos:station:wmo:42051:1,2006-09-03T16:00:00Z,29.6350,-93.6417,2.0,234.3828249,4.207006061,-99999.0,'11133222,11111222,99999999' 
TABS,ioos:station:wmo:42051:1,2006-09-03T17:00:00Z,29.6350,-93.6417,2.0,252.4784462,6.543584645,-99999.0,'11133222,11111222,99999999' 
TABS,ioos:station:wmo:42051:1,2006-09-03T17:30:00Z,29.6350,-93.6417,2.0,237.7727273,5.756891522,-99999.0,'11133222,11111222,99999999' 
TABS,ioos:station:wmo:42051:1,2006-09-03T18:00:00Z,29.6350,-93.6417,2.0,243.9077415,5.957088215,-99999.0,'11133222,11111222,99999999' 
TABS,ioos:station:wmo:42051:1,2006-09-03T18:30:00Z,29.6350,-93.6417,2.0,229.6318567,6.654397043,-99999.0,'11133222,11111222,99999999' 
TABS,ioos:station:wmo:42051:1,2006-09-03T19:00:00Z,29.6350,-93.6417,2.0,242.2740635,4.857736098,-99999.0,'11133222,11111222,99999999' 
TABS,ioos:station:wmo:42051:1,2006-09-03T19:30:00Z,29.6350,-93.6417,2.0,261.3420479,4.916014646,-99999.0,'11133222,11111222,99999999' 
TABS,ioos:station:wmo:42051:1,2006-09-03T20:00:00Z,29.6350,-93.6417,2.0,228.1425455,4.25611325,-99999.0,'11133222,11111222,99999999' 
TABS,ioos:station:wmo:42051:1,2006-09-03T20:30:00Z,29.6350,-93.6417,2.0,279.6737537,2.678077669,-99999.0,'11133222,11111222,99999999' 
TABS,ioos:station:wmo:42051:1,2006-09-03T21:00:00Z,29.6350,-93.6417,2.0,202.9724572,0.999249719,-99999.0,'11133222,11111222,99999999' 
TABS,ioos:station:wmo:42051:1,2006-09-03T22:00:00Z,29.6350,-93.6417,2.0,150.406687,7.026592346,-99999.0,'11133222,11111222,99999999' 
TABS,ioos:station:wmo:42051:1,2006-09-03T23:00:00Z,29.6350,-93.6417,2.0,151.5495743,2.854767942,-99999.0,'11133222,11111222,99999999' 
TABS,ioos:station:wmo:42051:1,2006-09-03T23:30:00Z,29.6350,-93.6417,2.0,332.7007021,4.535118521,-99999.0,'11133222,11111222,99999999' 
TABS,ioos:station:wmo:42051:1,2006-09-04T00:00:00Z,29.6350,-93.6417,2.0,338.5979919,2.932200539,-99999.0,'11133222,11111222,99999999' 
TABS,ioos:station:wmo:42051:1,2006-09-04T01:00:00Z,29.6350,-93.6417,2.0,344.1362542,6.767761816,-99999.0,'11133222,11111222,99999999' 
TABS,ioos:station:wmo:42051:1,2006-09-04T01:30:00Z,29.6350,-93.6417,2.0,2.697721983,10.41153687,-99999.0,'11111222,11111222,99999999' 
TABS,ioos:station:wmo:42051:1,2006-09-04T02:30:00Z,29.6350,-93.6417,2.0,18.19404195,11.27361965,-99999.0,'11111222,11111222,99999999' 
TABS,ioos:station:wmo:42051:1,2006-09-04T03:00:00Z,29.6350,-93.6417,2.0,13.77924097,12.42765062,-99999.0,'11111222,11111222,99999999' 
TABS,ioos:station:wmo:42051:1,2006-09-04T03:30:00Z,29.6350,-93.6417,2.0,320.3402197,5.54657552,-99999.0,'11133222,11111222,99999999' 
TABS,ioos:station:wmo:42051:1,2006-09-04T04:00:00Z,29.6350,-93.6417,2.0,301.3209071,5.232523292,-99999.0,'11133222,11111222,99999999' 
TABS,ioos:station:wmo:42051:1,2006-09-04T04:30:00Z,29.6350,-93.6417,2.0,307.9404987,7.709344979,-99999.0,'11133222,11111222,99999999' 
TABS,ioos:station:wmo:42051:1,2006-09-04T05:00:00Z,29.6350,-93.6417,2.0,309.6068874,7.372408019,-99999.0,'11133222,11111222,99999999' 
TABS,ioos:station:wmo:42051:1,2006-09-04T05:30:00Z,29.6350,-93.6417,2.0,316.4825207,4.647246497,-99999.0,'11133222,11111222,99999999' 
TABS,ioos:station:wmo:42051:1,2006-09-04T06:00:00Z,29.6350,-93.6417,2.0,284.7190435,4.683695122,-99999.0,'11133222,11111222,99999999' 
TABS,ioos:station:wmo:42051:1,2006-09-04T06:30:00Z,29.6350,-93.6417,2.0,298.4215637,4.832442447,-99999.0,'11133222,11111222,99999999' 
TABS,ioos:station:wmo:42051:1,2006-09-04T07:00:00Z,29.6350,-93.6417,2.0,281.5925692,6.768049941,-99999.0,'11133222,11111222,99999999' 
TABS,ioos:station:wmo:42051:1,2006-09-04T07:30:00Z,29.6350,-93.6417,2.0,253.4834519,6.894468798,-99999.0,'11133222,11111222,99999999' 
TABS,ioos:station:wmo:42051:1,2006-09-04T08:00:00Z,29.6350,-93.6417,2.0,237.7240102,6.292217415,-99999.0,'11133222,11111222,99999999' 
TABS,ioos:station:wmo:42051:1,2006-09-04T08:30:00Z,29.6350,-93.6417,2.0,228.7310726,6.519202405,-99999.0,'11133222,11111222,99999999' 
TABS,ioos:station:wmo:42051:1,2006-09-04T09:00:00Z,29.6350,-93.6417,2.0,207.9668396,6.397069642,-99999.0,'11133222,11111222,99999999' 
TABS,ioos:station:wmo:42051:1,2006-09-04T09:30:00Z,29.6350,-93.6417,2.0,223.8184982,6.860393575,-99999.0,'11133222,11111222,99999999' 
TABS,ioos:station:wmo:42051:1,2006-09-04T10:00:00Z,29.6350,-93.6417,2.0,254.4862507,8.561927353,-99999.0,'11133222,11111222,99999999' 
TABS,ioos:station:wmo:42051:1,2006-09-04T10:30:00Z,29.6350,-93.6417,2.0,215.0622239,5.326649979,-99999.0,'11133222,11111222,99999999' 
TABS,ioos:station:wmo:42051:1,2006-09-04T11:00:00Z,29.6350,-93.6417,2.0,226.5040726,7.00277088,-99999.0,'11133222,11111222,99999999' 
TABS,ioos:station:wmo:42051:1,2006-09-04T11:30:00Z,29.6350,-93.6417,2.0,224.2575542,5.459322302,-99999.0,'11133222,11111222,99999999' 
TABS,ioos:station:wmo:42051:1,2006-09-04T12:00:00Z,29.6350,-93.6417,2.0,268.5239052,4.271416627,-99999.0,'11133222,11111222,99999999' 
TABS,ioos:station:wmo:42051:1,2006-09-04T12:30:00Z,29.6350,-93.6417,2.0,246.7278309,5.138024912,-99999.0,'11133222,11111222,99999999' 
TABS,ioos:station:wmo:42051:1,2006-09-04T13:00:00Z,29.6350,-93.6417,2.0,270.6906965,6.64048191,-99999.0,'11133222,11111222,99999999' 
TABS,ioos:station:wmo:42051:1,2006-09-04T13:30:00Z,29.6350,-93.6417,2.0,268.3688268,5.622277119,-99999.0,'11133222,11111222,99999999' 
TABS,ioos:station:wmo:42051:1,2006-09-04T14:00:00Z,29.6350,-93.6417,2.0,257.304244,7.462439279,-99999.0,'11133222,11111222,99999999' 
TABS,ioos:station:wmo:42051:1,2006-09-04T14:30:00Z,29.6350,-93.6417,2.0,264.6083353,5.534482812,-99999.0,'11133222,11111222,99999999' 
TABS,ioos:station:wmo:42051:1,2006-09-04T15:00:00Z,29.6350,-93.6417,2.0,270.7077386,5.670432082,-99999.0,'11133222,11111222,99999999' 
TABS,ioos:station:wmo:42051:1,2006-09-04T15:30:00Z,29.6350,-93.6417,2.0,246.5117176,8.580984792,-99999.0,'11133222,11111222,99999999' 
TABS,ioos:station:wmo:42051:1,2006-09-04T16:00:00Z,29.6350,-93.6417,2.0,251.8958584,10.94166349,-99999.0,'11111222,11111222,99999999' 
TABS,ioos:station:wmo:42051:1,2006-09-04T16:30:00Z,29.6350,-93.6417,2.0,258.5047828,10.93941498,-99999.0,'11111222,11111222,99999999' 
TABS,ioos:station:wmo:42051:1,2006-09-04T17:00:00Z,29.6350,-93.6417,2.0,244.0921373,14.80821731,-99999.0,'11111222,11111222,99999999' 
TABS,ioos:station:wmo:42051:1,2006-09-04T17:30:00Z,29.6350,-93.6417,2.0,241.7765987,12.98357424,-99999.0,'11111222,11111222,99999999' 
TABS,ioos:station:wmo:42051:1,2006-09-04T18:00:00Z,29.6350,-93.6417,2.0,248.9565852,14.87178537,-99999.0,'11111222,11111222,99999999' 
TABS,ioos:station:wmo:42051:1,2006-09-04T18:30:00Z,29.6350,-93.6417,2.0,246.9022624,14.12202889,-99999.0,'11111222,11111222,99999999' 
TABS,ioos:station:wmo:42051:1,2006-09-04T19:00:00Z,29.6350,-93.6417,2.0,233.675424,10.50047618,-99999.0,'11111222,11111222,99999999' 
TABS,ioos:station:wmo:42051:1,2006-09-04T19:30:00Z,29.6350,-93.6417,2.0,241.3593958,10.74464518,-99999.0,'11111222,11111222,99999999' 
TABS,ioos:station:wmo:42051:1,2006-09-04T20:00:00Z,29.6350,-93.6417,2.0,200.3228788,5.182624818,-99999.0,'11133222,11111222,99999999' 
TABS,ioos:station:wmo:42051:1,2006-09-04T20:30:00Z,29.6350,-93.6417,2.0,243.0503478,6.001741414,-99999.0,'11133222,11111222,99999999' 
TABS,ioos:station:wmo:42051:1,2006-09-04T21:00:00Z,29.6350,-93.6417,2.0,243.5321975,5.25029523,-99999.0,'11133222,11111222,99999999' 
TABS,ioos:station:wmo:42051:1,2006-09-04T21:30:00Z,29.6350,-93.6417,2.0,186.1302639,2.715529414,-99999.0,'11133222,11111222,99999999' 
TABS,ioos:station:wmo:42051:1,2006-09-04T22:00:00Z,29.6350,-93.6417,2.0,144.425755,5.483402229,-99999.0,'11133222,11111222,99999999' 
TABS,ioos:station:wmo:42051:1,2006-09-04T22:30:00Z,29.6350,-93.6417,2.0,98.70493675,4.228711388,-99999.0,'11133222,11111222,99999999' 
TABS,ioos:station:wmo:42051:1,2006-09-04T23:00:00Z,29.6350,-93.6417,2.0,75.79076593,5.622001423,-99999.0,'11133222,11111222,99999999' 